Regional Weather Roundup
Issued by NWS

Home | Current Version | Previous Version | Text Only | Print | Product List | Glossary On
Versions: 1 2 3 4 5 6 7 8 9 10 11 12 13 14 15 16 17 18 19 20 21 22 23 24 25 26 27 28 29 30 31 32 33 34 35 36 37 38 39 40 41 42 43 44 45 46 47 48 49 50
000
ASUS45 KSLC 110810
RWRUT

UTAH REGIONAL WEATHER ROUNDUP
NATIONAL WEATHER SERVICE SALT LAKE CITY UT
100 AM MST MON DEC 11 2017

UTZ001>011-023>025-110900-

NORTHERN UTAH

CITY           SKY/WX    TMP DP  RH WIND       PRES   REMARKS
BRIGHAM CITY   PTCLDY    20  16  84 CALM      30.63F
HILL AFB       PTCLDY    23  13  67 SE10      30.59S WCI  12
LOGAN          CLOUDY    21  15  78 S6        30.64S WCI  13
OGDEN          PTCLDY    21  14  74 S5        30.60S WCI  15
SALT LAKE CITY PTCLDY    25  22  88 CALM      30.62R
TOOELE VALLEY  PTCLDY    21  18  86 S7        30.62S WCI  13
WENDOVER       PTCLDY    15  11  83 NE6       30.62R WCI   6
HEBER CITY       N/A     12   9  85 CALM      30.57S
WEST JORDAN    PTCLDY    20  18  91 CALM      30.61R

$$

UTZ011>015-024>027-110900-

CENTRAL/NORTHEAST UTAH

CITY           SKY/WX    TMP DP  RH WIND       PRES   REMARKS
PROVO AIRPORT  PTCLDY    17  14  88 CALM      30.62S
MOAB/CANYONLAN MOCLDY    21   3  45 CALM      30.53S
DELTA          CLOUDY    10   5  79 CALM      30.58S
PRICE          PTCLDY    22  -1  36 N6        30.51F WCI  14
ROOSEVELT      CLOUDY    12   5  73 SW3       30.59R
VERNAL         CLOUDY    15   6  67 W5        30.57R WCI   8

$$

UTZ013>016-019>022-027-110900-

SOUTHERN UTAH

CITY           SKY/WX    TMP DP  RH WIND       PRES   REMARKS
BRYCE CANYON   PTCLDY    13 -13  30 W12       30.55R WCI  -1
CEDAR CITY     PTCLDY    14   6  70 CALM      30.53R
MILFORD        MOCLDY    13   8  81 CALM      30.56F
ST GEORGE      MOSUNNY   37   0  21 VRB3      30.46S
HANKSVILLE     CLOUDY    12  -4  48 CALM      30.57S
BLANDING         N/A     27   0  31 CALM      30.57R

$$

REGIONAL REPORTS     COLORADO/ARIZONA

CITY           SKY/WX    TMP DP  RH WIND       PRES   REMARKS
CRAIG, CO      CLOUDY     6   1  80 CALM      30.55F
GRAND JUNCTION CLOUDY    23   3  42 E8        30.53F WCI  14
RIFLE, CO      CLOUDY    18   2  49 S3        30.56S
MONTROSE, CO   CLOUDY    19  -1  41 S9        30.57F WCI   8
CORTEZ, CO     CLOUDY    12  -1  56 E5        30.51S WCI   4
COLORADO CITY    N/A     23  -6  28 CALM      30.47F
PAGE, AZ       MOCLDY    32  15  49 CALM      30.50F
GRAND CANYON   MOCLDY    37 -13  11 E5        30.47F WCI  33
KINGMAN, AZ    PTCLDY    38  -1  19 E8        30.36F WCI  32
FLAGSTAFF, AZ  MOCLDY    24  -8  24 E6        30.49S WCI  17

$$

REGIONAL REPORTS    NEVADA/IDAHO/WYOMING

CITY           SKY/WX    TMP DP  RH WIND       PRES   REMARKS
LAS VEGAS, NV  CLOUDY    47   6  18 CALM      30.35F
ELY, NY        MOCLDY    10  -8  44 S14       30.56F WCI  -6
ELKO, NV       MOCLDY    17  13  84 N5        30.55F WCI  10
POCATELLO, ID  CLOUDY    14   9  80 CALM      30.60F
BURLEY, ID     PTCLDY    15  11  83 MISG      30.58F
FORT BRIDGER,    N/A     35   3  26 W13       30.55F WCI  26
EVANSTON, WY   CLOUDY    26   6  42 CALM      30.56R
ROCK SPRINGS,  CLOUDY    31   6  35 SW16      30.50S WCI  20

$$



USA.gov is the U.S. government's official web portal to all federal, state and local government web resources and services.